TimeCDT,TemperatureF,Dew PointF,Humidity,Sea Level PressureIn,VisibilityMPH,Wind Direction,Wind SpeedMPH,Gust SpeedMPH,PrecipitationIn,Events,Conditions,WindDirDegrees,DateUTC
12:53 AM,64.0,59.0,84,30.08,10.0,Calm,Calm,-,N/A,,Clear,0,2013-09-16 05:53:00
1:53 AM,64.0,60.1,87,30.09,10.0,Calm,Calm,-,N/A,,Clear,0,2013-09-16 06:53:00
2:53 AM,63.0,59.0,87,30.09,10.0,North,3.5,-,N/A,,Partly Cloudy,360,2013-09-16 07:53:00
3:53 AM,64.0,59.0,84,30.10,10.0,Calm,Calm,-,N/A,,Partly Cloudy,0,2013-09-16 08:53:00
4:53 AM,64.0,59.0,84,30.10,10.0,Calm,Calm,-,N/A,,Partly Cloudy,0,2013-09-16 09:53:00
5:53 AM,64.9,60.1,84,30.12,10.0,NNW,3.5,-,N/A,,Overcast,340,2013-09-16 10:53:00
6:53 AM,68.0,62.1,81,30.15,10.0,North,5.8,-,N/A,,Overcast,350,2013-09-16 11:53:00
7:53 AM,68.0,63.0,84,30.14,9.0,NE,5.8,-,0.00,Rain,Light Rain,50,2013-09-16 12:53:00
8:53 AM,68.0,64.0,87,30.18,5.0,NNW,8.1,-,0.00,,Mostly Cloudy,330,2013-09-16 13:53:00
9:04 AM,68.0,64.4,88,30.19,5.0,NNW,8.1,-,N/A,,Mostly Cloudy,330,2013-09-16 14:04:00
9:13 AM,69.8,64.4,83,30.19,6.0,North,5.8,-,0.00,Rain,Light Rain,350,2013-09-16 14:13:00
9:23 AM,69.8,64.4,83,30.19,5.0,North,5.8,-,0.01,Rain,Light Rain,10,2013-09-16 14:23:00
9:53 AM,69.1,64.9,87,30.17,7.0,NE,5.8,-,0.01,,Scattered Clouds,40,2013-09-16 14:53:00
10:14 AM,69.8,64.4,83,30.18,7.0,NNE,6.9,-,N/A,,Scattered Clouds,30,2013-09-16 15:14:00
10:53 AM,70.0,66.0,87,30.19,5.0,NE,8.1,-,0.00,Rain,Light Rain,40,2013-09-16 15:53:00
11:00 AM,69.8,66.2,88,30.20,5.0,NE,8.1,-,0.01,Rain,Light Rain,40,2013-09-16 16:00:00
11:08 AM,69.8,66.2,88,30.20,7.0,NNE,6.9,-,0.01,Rain,Light Rain,30,2013-09-16 16:08:00
11:53 AM,71.1,66.0,84,30.21,10.0,NNE,5.8,-,0.01,,Overcast,20,2013-09-16 16:53:00
12:26 PM,69.8,64.4,83,30.21,10.0,NNE,6.9,-,N/A,,Overcast,20,2013-09-16 17:26:00
12:48 PM,69.8,64.4,83,30.21,10.0,NNE,5.8,-,N/A,,Overcast,30,2013-09-16 17:48:00
12:53 PM,70.0,64.9,84,30.21,10.0,NNE,5.8,-,N/A,,Overcast,30,2013-09-16 17:53:00
1:53 PM,69.1,64.9,87,30.19,6.0,NE,10.4,-,0.00,Rain,Light Rain,40,2013-09-16 18:53:00
2:02 PM,69.8,64.4,83,30.19,5.0,NNE,9.2,-,0.00,Rain,Light Rain,30,2013-09-16 19:02:00
2:37 PM,71.6,64.4,78,30.18,10.0,NNE,9.2,-,0.01,,Mostly Cloudy,30,2013-09-16 19:37:00
2:53 PM,71.1,64.0,78,30.18,10.0,NNE,10.4,-,0.01,,Overcast,20,2013-09-16 19:53:00
3:53 PM,72.0,64.0,76,30.16,10.0,NNE,10.4,-,N/A,,Overcast,30,2013-09-16 20:53:00
4:24 PM,71.6,64.4,78,30.17,10.0,NE,9.2,-,N/A,,Overcast,40,2013-09-16 21:24:00
4:53 PM,71.1,63.0,75,30.16,10.0,NNE,8.1,-,N/A,,Overcast,20,2013-09-16 21:53:00
5:53 PM,71.1,63.0,75,30.16,10.0,NNE,6.9,-,N/A,,Overcast,20,2013-09-16 22:53:00
6:12 PM,69.8,62.6,78,30.16,10.0,NNE,5.8,-,N/A,,Overcast,30,2013-09-16 23:12:00
6:53 PM,69.1,63.0,81,30.15,10.0,North,4.6,-,N/A,,Partly Cloudy,10,2013-09-16 23:53:00
7:53 PM,66.9,63.0,87,30.16,10.0,Calm,Calm,-,N/A,,Clear,0,2013-09-17 00:53:00
8:53 PM,66.0,62.1,87,30.17,10.0,Calm,Calm,-,N/A,,Scattered Clouds,0,2013-09-17 01:53:00
9:53 PM,66.0,63.0,90,30.18,10.0,North,3.5,-,N/A,,Overcast,350,2013-09-17 02:53:00
10:53 PM,66.9,63.0,87,30.19,9.0,Calm,Calm,-,N/A,,Overcast,0,2013-09-17 03:53:00
11:53 PM,66.9,61.0,81,30.18,10.0,NNE,5.8,-,N/A,,Overcast,20,2013-09-17 04:53:00